Location: Riverton
(43.0250°N, 108.3790°W)
Time: 17:58:21
(UTC-06:00)

JAS-2 - Visible Passes

Search period start: 18 April 2014 00:00
Search period end: 28 April 2014 00:00
Orbit: 799 x 1323 km, 98.5° (Epoch: 17 April)

Date Brightness Start Highest point End Pass type
(mag) Time Alt. Az. Time Alt. Az. Time Alt. Az.
18 Apr 12.2 21:10:52 10° WSW 21:13:49 14° W 21:16:39 10° WNW visible
20 Apr 12.1 21:05:43 10° SW 21:08:52 15° W 21:11:54 10° WNW visible
22 Apr 12.0 21:00:34 10° SW 21:03:55 16° W 21:07:08 10° NW visible
24 Apr 12.0 20:55:26 10° SW 20:58:57 17° W 21:02:21 10° NW visible
26 Apr 11.9 20:50:19 10° SW 20:53:59 18° W 20:57:33 10° NW visible
